Weather History for Troy, MI

Change the Weather History Date:

Saturday, May 11, 2013

  Actual Average (KDET) Record (KDET)
Temperature  
Mean Temperature 50 °F -  
Max Temperature 59 °F 70 °F 86 °F (1979)
Min Temperature 41 °F 49 °F 33 °F (1949)
Degree Days  
Heating Degree Days 15    
Moisture  
Dew Point 41 °F    
Average Humidity 77    
Maximum Humidity 91    
Minimum Humidity 55    
Precipitation  
Precipitation 0.00 in - - ()
Sea Level Pressure  
Sea Level Pressure 29.85 in    
Wind  
Wind Speed 8 mph (WNW)    
Max Wind Speed 25 mph    
Max Gust Speed 37 mph    
Visibility 10 miles    
Events Rain    
Averages and records for this station are not official NWS values.
T = Trace of Precipitation, MM = Missing Value Source: NWS Daily Summary

Daily Weather History Graph

Daily Weather History Graph

Search for Another Location

Airport:

Trip Planner

Search our weather history database for the weather conditions in past years. The results will help you decide how hot, cold, wet, or windy it might be!

Date:

Astronomy

May. 11, 2013 Rise Set
Actual Time 6:14 AM EDT 8:44 PM EDT
Civil Twilight 5:42 AM EDT 9:16 PM EDT
Nautical Twilight 5:03 AM EDT 9:55 PM EDT
Astronomical Twilight 4:18 AM EDT 10:40 PM EDT
Moon 7:21 AM EDT (5/11) 10:24 PM EDT (5/11)
Length of Visible Light 15h 33m
Length of Day
14h 29m
Waxing Crescent, 3% of the Moon is Illuminated
May 11
Waxing Crescent
May 18
First Quarter
May 25
Full
May 31
Last Quarter
Jun 8
New

Hourly Weather History & Observations

Time (EDT) Temp. Windchill Dew Point Humidity Pressure Visibility Wind Dir Wind Speed Gust Speed Precip Events Conditions
12:15 AM 42.8 °F 38.6 °F 39.2 °F 87% 29.88 in 10.0 mi North 6.9 mph - N/A   Overcast
12:35 AM 42.6 °F 38.4 °F 39.2 °F 88% 29.88 in 10.0 mi NNW 6.9 mph - N/A   Overcast
12:55 AM 43.0 °F 38.8 °F 39.0 °F 86% 29.88 in 10.0 mi NNW 6.9 mph - N/A   Overcast
1:15 AM 43.2 °F 37.4 °F 39.2 °F 86% 29.88 in 10.0 mi NW 10.4 mph - N/A   Overcast
1:35 AM 42.6 °F 37.2 °F 38.7 °F 86% 29.88 in 10.0 mi NW 9.2 mph - N/A   Overcast
1:55 AM 42.8 °F 36.6 °F 38.5 °F 85% 29.88 in 10.0 mi NNW 11.5 mph - N/A   Overcast
2:14 AM 42.6 °F 37.8 °F 38.7 °F 86% 29.87 in 10.0 mi North 8.1 mph - N/A   Overcast
2:35 AM 42.3 °F 36.8 °F 38.8 °F 88% 29.88 in 10.0 mi NW 9.2 mph - N/A   Overcast
2:55 AM 42.4 °F 38.8 °F 39.2 °F 88% 29.88 in 10.0 mi NNW 5.8 mph - N/A   Overcast
3:14 AM 42.6 °F 39.0 °F 39.4 °F 88% 29.89 in 10.0 mi NW 5.8 mph - N/A   Overcast
3:35 AM 43.0 °F 39.5 °F 39.7 °F 88% 29.89 in 10.0 mi NW 5.8 mph - N/A   Overcast
3:55 AM 42.8 °F 38.6 °F 39.9 °F 90% 29.89 in 10.0 mi NNW 6.9 mph - N/A   Overcast
4:14 AM 43.7 °F 40.3 °F 40.3 °F 88% 29.89 in 10.0 mi NW 5.8 mph - N/A   Overcast
4:35 AM 43.3 °F 39.9 °F 40.6 °F 90% 29.89 in 10.0 mi NW 5.8 mph - N/A   Overcast
4:55 AM 43.7 °F 40.3 °F 41.0 °F 90% 29.89 in 10.0 mi NW 5.8 mph - N/A   Overcast
5:15 AM 44.2 °F 41.0 °F 41.2 °F 89% 29.89 in 10.0 mi NW 5.8 mph - N/A   Overcast
5:35 AM 44.2 °F 41.0 °F 41.5 °F 90% 29.89 in 7.0 mi NW 5.8 mph - N/A   Overcast
5:55 AM 44.4 °F 40.0 °F 41.9 °F 91% 29.89 in 7.0 mi WNW 8.1 mph - N/A   Overcast
6:15 AM 44.1 °F 42.5 °F 41.0 °F 89% 29.89 in 10.0 mi WNW 3.5 mph - N/A   Overcast
6:35 AM 44.1 °F 40.8 °F 40.6 °F 88% 29.89 in 10.0 mi NW 5.8 mph - N/A   Overcast
6:55 AM 43.5 °F 39.4 °F 40.1 °F 88% 29.89 in 10.0 mi NW 6.9 mph - N/A   Overcast
7:15 AM 43.7 °F 38.1 °F 40.5 °F 88% 29.89 in 10.0 mi WNW 10.4 mph - N/A   Overcast
7:35 AM 44.1 °F 39.5 °F 40.5 °F 87% 29.89 in 10.0 mi NW 8.1 mph - N/A   Overcast
7:54 AM 44.4 °F 42.9 °F 41.0 °F 88% 29.89 in 10.0 mi NW 3.5 mph - N/A   Overcast
8:15 AM 44.6 °F 42.2 °F 41.0 °F 87% 29.88 in 10.0 mi NNW 4.6 mph - N/A   Overcast
8:35 AM 45.1 °F 41.4 °F 41.9 °F 88% 29.88 in 10.0 mi WNW 6.9 mph - N/A   Overcast
8:54 AM 45.0 °F 43.5 °F 41.7 °F 88% 29.88 in 10.0 mi West 3.5 mph - N/A   Overcast
9:15 AM 45.7 °F 43.4 °F 41.9 °F 87% 29.87 in 10.0 mi NW 4.6 mph - N/A   Overcast
9:35 AM 45.7 °F 43.4 °F 42.3 °F 88% 29.87 in 10.0 mi WNW 4.6 mph - N/A   Overcast
9:55 AM 46.4 °F 42.9 °F 42.3 °F 85% 29.88 in 10.0 mi West 6.9 mph - N/A   Overcast
10:15 AM 46.6 °F - 42.3 °F 85% 29.87 in 10.0 mi West 5.8 mph - N/A   Overcast
10:35 AM 46.8 °F - 42.3 °F 84% 29.88 in 10.0 mi WNW 5.8 mph - N/A   Overcast
10:55 AM 46.9 °F - 42.3 °F 84% 29.87 in 10.0 mi West 5.8 mph - N/A   Overcast
11:15 AM 47.7 °F - 42.8 °F 83% 29.87 in 10.0 mi West 6.9 mph - N/A   Overcast
11:35 AM 48.2 °F - 43.0 °F 82% 29.87 in 10.0 mi West 8.1 mph - N/A   Overcast
11:55 AM 48.7 °F - 43.2 °F 81% 29.86 in 10.0 mi West 6.9 mph - N/A   Overcast
12:15 PM 50.2 °F - 43.5 °F 78% 29.86 in 10.0 mi SW 5.8 mph - N/A   Overcast
12:35 PM 50.9 °F - 44.1 °F 77% 29.86 in 10.0 mi West 6.9 mph - N/A   Overcast
12:54 PM 51.8 °F - 44.1 °F 75% 29.85 in 10.0 mi South 3.5 mph - N/A   Overcast
1:15 PM 52.9 °F - 44.1 °F 72% 29.83 in 10.0 mi South 5.8 mph - N/A   Overcast
1:35 PM 54.0 °F - 44.2 °F 70% 29.82 in 10.0 mi SW 3.5 mph - N/A   Mostly Cloudy
1:55 PM 56.1 °F - 43.9 °F 64% 29.82 in 10.0 mi SW 8.1 mph 16.1 mph N/A   Mostly Cloudy
2:15 PM 56.1 °F - 43.3 °F 62% 29.81 in 10.0 mi SSW 8.1 mph - N/A   Mostly Cloudy
2:34 PM 57.2 °F - 42.8 °F 59% 29.81 in 10.0 mi WSW 6.9 mph 16.1 mph N/A   Scattered Clouds
2:55 PM 58.1 °F - 42.8 °F 57% 29.80 in 10.0 mi South 9.2 mph - N/A   Scattered Clouds
3:14 PM 58.8 °F - 42.8 °F 55% 29.80 in 10.0 mi South 10.4 mph 17.3 mph N/A   Mostly Cloudy
3:35 PM 58.8 °F - 43.2 °F 56% 29.80 in 10.0 mi SSW 12.7 mph 18.4 mph N/A   Scattered Clouds
3:54 PM 58.1 °F - 42.8 °F 57% 29.79 in 10.0 mi SSW 10.4 mph - N/A   Mostly Cloudy
4:15 PM 57.6 °F - 43.0 °F 58% 29.78 in 10.0 mi SSW 11.5 mph 18.4 mph N/A   Overcast
4:35 PM 57.4 °F - 42.3 °F 57% 29.77 in 10.0 mi SSW 10.4 mph 19.6 mph N/A   Mostly Cloudy
4:54 PM 59.0 °F - 42.8 °F 55% 29.76 in 10.0 mi SSW 10.4 mph 21.9 mph N/A   Mostly Cloudy
5:15 PM 59.9 °F - 43.5 °F 55% 29.75 in 10.0 mi South 15.0 mph 18.4 mph N/A   Scattered Clouds
5:35 PM 59.0 °F - 43.3 °F 56% 29.75 in 10.0 mi South 11.5 mph 18.4 mph N/A   Scattered Clouds
5:54 PM 58.5 °F - 44.6 °F 60% 29.76 in 10.0 mi SSW 10.4 mph 17.3 mph N/A Rain Rain
6:15 PM 55.9 °F - 46.4 °F 70% 29.77 in 7.0 mi WSW 15.0 mph 26.5 mph N/A Rain Light Rain
6:35 PM 56.5 °F - 44.2 °F 64% 29.77 in 10.0 mi WSW 13.8 mph 23.0 mph N/A   Overcast
6:55 PM 55.9 °F - 45.0 °F 67% 29.77 in 10.0 mi West 11.5 mph 19.6 mph N/A   Overcast
7:15 PM 55.4 °F - 45.7 °F 70% 29.78 in 7.0 mi West 19.6 mph 29.9 mph N/A Rain Heavy Rain
7:35 PM 51.8 °F - 46.0 °F 81% 29.80 in 10.0 mi WNW 16.1 mph 25.3 mph N/A   Overcast
7:55 PM 50.5 °F - 43.5 °F 77% 29.82 in 10.0 mi NW 18.4 mph 26.5 mph N/A   Overcast
8:14 PM 48.6 °F - 40.3 °F 73% 29.84 in 10.0 mi WNW 20.7 mph 35.7 mph N/A   Overcast
8:35 PM 45.9 °F 37.2 °F 38.5 °F 75% 29.87 in 10.0 mi NW 25.3 mph 36.8 mph N/A   Overcast
8:55 PM 43.9 °F 35.0 °F 34.9 °F 71% 29.89 in 10.0 mi NW 23.0 mph 34.5 mph N/A   Overcast
9:15 PM 42.6 °F 36.3 °F 33.6 °F 70% 29.89 in 10.0 mi NW 11.5 mph 26.5 mph N/A   Mostly Cloudy
9:35 PM 42.1 °F 35.2 °F 32.5 °F 69% 29.89 in 10.0 mi NW 12.7 mph 21.9 mph N/A   Mostly Cloudy
9:55 PM 41.9 °F 35.4 °F 32.5 °F 69% 29.90 in 10.0 mi NW 11.5 mph 19.6 mph N/A   Clear
10:15 PM 41.7 °F 34.8 °F 32.7 °F 70% 29.90 in 10.0 mi WNW 12.7 mph 18.4 mph N/A   Clear
10:35 PM 41.9 °F 36.3 °F 32.9 °F 70% 29.90 in 10.0 mi WNW 9.2 mph - N/A   Clear
10:54 PM 41.4 °F 35.7 °F 32.9 °F 72% 29.91 in 10.0 mi WNW 9.2 mph - N/A   Clear
11:35 PM 41.4 °F 36.2 °F 32.9 °F 72% 29.91 in 10.0 mi West 8.1 mph - N/A   Clear
11:54 PM 41.2 °F 37.3 °F 32.9 °F 72% 29.90 in 10.0 mi WSW 5.8 mph - N/A   Clear